Theta_e
349 349 348 348 348 347 347 347 345 341 337 336 336 335 335 335 334 334 334 333 333 335 336 337 338 339 340 339 338 337 337 338 339 338 338 337 337 338 338 338 338 338 338 339 339 339 339 339 339 339 339 339 339 339 340 341 342 343 345 346 346 346 346 345 343 339 337 336 335 335 337 336 334 333 330 328 330 330 329 329 329 332 334 338 345
348 349 349 348 348 348 348 347 347 345 342 338 335 335 335 334 334 333 333 333 332 333 333 334 335 337 339 339 339 338 337 338 338 337 337 337 337 336 336 337 337 337 337 337 338 338 338 337 337 338 337 337 337 337 338 338 338 339 340 341 342 343 342 342 341 338 335 335 335 334 335 334 333 333 330 329 330 329 328 328 329 333 335 339 348
348 348 348 348 348 348 348 348 347 347 345 342 339 336 335 334 333 333 332 332 331 331 331 331 333 335 336 337 338 338 337 337 337 338 337 335 333 333 332 333 334 336 336 337 337 337 337 336 336 337 337 337 337 337 336 336 336 336 336 336 337 337 338 338 337 336 335 335 334 334 334 334 333 332 330 328 330 329 329 329 329 335 337 340 348
346 347 347 348 348 348 348 348 348 348 347 346 344 340 337 335 333 332 332 331 331 331 331 330 331 333 334 335 335 335 336 337 338 337 334 330 328 327 327 327 328 331 333 334 335 336 336 337 337 337 337 337 337 337 337 336 336 336 336 335 336 336 336 335 335 336 335 334 333 332 332 333 333 332 330 328 329 330 330 329 329 335 340 341 346
346 346 347 347 347 348 348 348 348 348 348 348 347 345 342 339 336 333 332 332 331 330 330 330 330 331 331 332 332 332 334 335 337 335 330 326 326 326 325 326 325 326 328 329 331 333 333 334 335 337 337 337 337 337 337 337 337 336 335 335 335 335 335 335 335 335 335 333 332 331 331 332 332 332 331 329 328 328 330 330 329 332 338 341 344
348 347 347 347 347 347 348 348 348 348 348 348 348 347 346 345 342 338 334 332 331 331 330 330 329 329 329 329 330 330 331 332 333 331 327 325 325 326 326 326 325 325 325 325 327 329 330 331 332 333 335 335 336 337 337 337 337 336 335 335 335 335 335 335 335 335 334 333 332 331 331 331 331 332 331 330 328 328 329 330 330 329 333 338 340
347 347 346 347 347 348 348 348 348 348 349 348 348 348 347 347 346 344 340 336 332 330 330 330 329 328 328 328 328 328 327 328 328 327 326 325 325 326 326 326 326 326 326 325 325 325 327 329 331 331 332 332 333 335 336 337 336 336 335 335 334 335 334 334 334 334 333 333 332 332 331 330 330 329 330 330 328 329 329 329 330 330 330 334 337
346 347 347 346 347 348 348 348 348 349 348 349 349 348 348 347 347 347 347 343 338 333 330 330 329 328 328 327 327 327 326 326 326 326 325 325 325 325 325 326 326 326 326 325 325 325 325 326 327 330 332 332 332 332 333 334 335 336 336 335 335 334 333 333 333 333 332 332 330 330 329 329 329 328 328 328 329 332 332 329 328 329 329 331 336
347 347 347 347 347 348 348 348 348 348 348 348 348 348 348 348 347 347 347 348 345 341 335 331 330 329 329 328 328 327 327 327 327 326 327 326 326 326 326 326 326 326 326 326 326 326 325 324 325 327 329 332 333 333 332 333 333 334 335 335 334 334 333 332 332 331 331 331 330 329 328 327 328 327 327 328 331 333 335 333 330 329 328 329 333
347 347 347 348 348 348 348 348 348 349 348 348 349 348 348 348 348 348 348 348 348 347 344 339 334 331 329 329 329 329 329 328 327 327 327 326 326 327 326 326 326 326 326 326 325 325 325 325 324 324 326 329 332 333 333 332 333 333 333 334 334 334 334 333 332 332 332 331 330 328 328 327 326 326 327 329 333 336 338 338 336 332 329 329 332
347 347 347 347 348 348 348 349 349 349 349 349 348 349 348 348 348 349 349 349 349 349 349 347 342 337 332 330 329 328 328 328 327 327 327 327 327 327 326 326 326 326 326 326 325 325 325 324 324 325 324 326 329 333 334 333 333 332 333 334 334 334 334 333 333 333 332 331 330 329 330 328 325 326 329 332 335 338 340 340 339 338 334 333 334
348 348 348 347 348 349 349 348 349 349 349 350 349 349 349 349 349 349 349 350 350 350 350 350 348 345 340 336 333 330 328 326 326 325 325 326 325 326 326 326 325 325 325 325 325 324 324 324 324 324 324 325 327 331 334 334 334 332 332 333 333 333 334 334 333 333 332 331 330 330 330 329 328 328 331 336 339 340 341 340 340 341 340 337 337
349 349 349 348 349 349 349 349 349 350 350 349 350 350 349 349 350 350 350 350 350 350 351 351 351 349 348 345 342 338 334 330 328 328 327 327 327 327 327 326 325 325 324 325 325 325 325 325 325 325 325 326 328 330 334 334 334 334 334 333 333 332 333 333 333 333 332 332 331 330 330 330 330 329 332 336 339 339 341 343 342 342 342 340 339
349 349 349 349 349 350 350 350 350 350 351 350 350 350 350 350 350 350 350 351 351 352 351 352 351 351 350 349 348 347 344 339 336 336 334 334 333 333 333 332 331 329 328 327 327 327 327 327 327 327 327 329 330 331 334 335 335 336 336 335 335 333 332 333 332 332 332 332 332 330 329 331 331 330 332 336 337 339 341 344 345 344 344 342 339
348 349 349 350 350 350 351 350 350 350 351 351 351 351 351 351 351 351 351 351 352 352 352 352 352 351 351 351 351 351 350 346 345 343 342 341 341 342 342 340 338 337 334 332 331 330 330 330 331 331 331 331 332 332 334 336 337 338 338 338 337 335 334 333 332 332 332 332 333 332 331 332 332 332 334 336 338 340 340 343 344 343 343 342 338
347 348 349 350 351 351 351 352 352 351 351 351 352 352 351 352 352 352 352 352 352 353 352 352 352 352 352 352 351 352 351 350 351 350 349 348 349 349 348 346 344 343 340 336 335 333 333 333 333 333 333 333 334 334 335 337 339 340 340 339 339 338 337 335 333 333 333 333 333 333 333 334 334 334 335 336 339 341 340 340 340 339 340 340 338
345 347 349 350 351 352 352 352 352 353 352 352 352 352 352 352 353 352 352 352 352 353 353 353 353 353 352 352 352 352 352 352 353 353 353 353 353 352 352 350 349 347 344 340 338 336 335 335 335 335 335 335 336 335 336 338 340 342 342 341 341 339 338 337 336 335 335 334 334 333 333 333 334 335 335 336 338 340 341 341 338 338 341 342 341
340 343 346 349 351 352 352 353 353 353 353 353 353 353 352 352 353 352 353 353 353 353 353 353 353 353 353 353 353 353 353 354 354 354 355 355 355 355 354 353 352 349 346 342 340 339 337 337 337 337 336 337 337 336 338 339 340 341 343 343 343 341 338 338 338 337 336 335 334 334 333 333 334 334 335 336 338 340 341 341 340 342 345 345 346
333 337 340 343 347 350 352 353 353 353 353 354 354 353 353 353 353 352 353 353 353 353 353 353 354 354 354 354 354 354 355 355 356 356 355 356 356 356 357 356 354 350 347 344 343 341 339 338 338 338 337 338 338 338 338 340 341 341 342 344 345 342 338 337 338 338 338 336 335 335 335 335 335 334 335 336 338 340 342 341 341 344 345 346 348
328 331 333 336 339 344 348 350 352 354 354 354 354 354 354 354 353 353 353 353 353 353 353 353 354 354 354 354 355 355 356 356 356 357 356 357 357 357 358 357 356 352 348 345 344 342 340 339 339 338 339 338 338 339 339 340 340 341 342 344 344 341 338 338 338 338 339 338 337 337 336 335 335 335 335 335 336 338 340 341 343 344 344 344 346
324 326 330 332 333 337 341 344 348 351 353 354 354 355 355 355 355 354 354 354 354 355 354 355 355 355 355 356 356 356 356 356 357 356 356 357 357 357 358 358 357 355 352 349 347 344 341 340 339 339 339 338 339 339 339 339 339 340 341 342 341 340 340 340 340 339 340 340 340 339 337 336 336 335 334 334 334 335 338 340 342 343 343 342 344
323 324 326 328 330 332 334 337 340 344 348 350 351 352 355 356 356 356 355 356 356 356 356 357 357 357 357 357 357 357 357 357 356 357 356 356 357 357 358 359 359 358 356 354 350 346 341 339 339 338 338 339 339 340 340 340 340 341 340 339 339 342 342 342 342 341 342 343 343 341 339 339 338 337 336 334 334 335 337 339 341 341 340 340 341
323 323 324 325 326 329 331 334 336 338 341 345 348 350 353 355 356 356 357 357 357 357 357 357 357 357 357 357 357 356 356 356 356 355 355 356 356 357 358 359 359 359 358 356 352 346 342 340 339 339 339 339 340 339 341 342 342 341 339 339 341 343 344 345 345 344 345 347 347 345 342 341 340 339 338 336 336 339 341 342 342 341 338 338 339
324 323 324 324 324 326 330 333 336 336 336 339 344 347 350 353 354 355 356 357 358 357 356 356 356 356 356 356 356 356 356 355 355 355 355 355 355 356 358 359 359 360 359 358 355 351 346 342 340 340 340 340 340 341 342 343 343 342 342 343 344 346 347 348 348 348 348 349 349 348 344 341 341 341 340 340 341 343 344 344 343 341 338 337 337
325 324 324 324 324 325 327 330 335 337 338 339 343 346 348 350 353 354 355 356 358 357 357 357 358 356 356 356 355 356 356 356 354 353 354 354 355 356 357 358 359 360 360 359 358 355 351 346 343 342 342 342 342 343 343 344 345 345 346 347 348 349 349 350 350 351 352 352 351 349 346 343 342 343 345 345 346 346 345 344 342 340 339 338 337
324 324 324 324 323 324 325 326 330 336 339 340 342 344 346 349 351 353 355 357 357 358 358 358 358 358 358 357 357 357 356 356 354 353 353 354 354 356 357 358 359 360 360 360 359 358 356 352 349 346 344 344 344 344 344 345 345 347 349 350 350 350 350 351 351 352 352 352 352 351 348 346 346 346 348 348 347 347 346 345 343 341 341 339 339
323 324 324 324 323 324 324 323 325 330 337 340 341 343 345 348 350 352 354 356 357 357 357 357 357 357 358 357 356 357 356 355 354 353 352 353 355 356 357 358 359 359 360 360 360 359 358 356 353 350 348 347 347 347 347 348 348 349 350 351 351 350 350 351 351 352 353 353 353 352 351 351 350 349 350 349 348 348 348 346 345 344 343 341 342
321 323 324 324 324 325 325 324 322 325 332 337 340 341 344 347 349 350 351 353 356 357 357 358 357 355 356 355 355 356 355 353 352 352 351 353 355 356 357 357 358 359 359 360 360 360 359 357 355 354 352 350 350 350 350 350 350 350 350 350 351 351 351 351 352 352 353 353 353 352 352 352 351 350 350 351 351 350 350 349 347 347 345 344 344
320 322 323 325 325 324 326 326 323 322 327 334 337 339 342 345 347 349 349 352 355 356 357 358 358 357 356 356 355 354 354 352 351 351 351 353 355 355 356 357 357 358 358 359 359 359 359 358 357 355 354 353 352 351 351 351 351 351 350 351 351 351 351 352 352 352 353 353 353 352 352 352 351 351 351 352 354 352 352 351 350 348 347 346 346
319 320 322 324 324 323 325 327 327 324 325 330 335 337 339 342 345 347 348 350 352 354 356 357 358 359 360 359 358 357 355 353 353 352 353 353 354 355 356 356 357 357 358 358 358 358 358 358 357 356 355 355 353 353 352 351 351 351 350 350 350 351 351 351 351 351 352 352 352 353 352 352 353 352 352 353 354 353 352 351 351 351 349 347 348
319 320 321 323 325 325 325 327 329 328 325 327 333 336 337 339 342 345 346 348 349 350 353 354 355 357 358 359 360 359 357 355 355 356 355 354 354 354 354 355 356 357 357 357 358 358 358 358 357 357 356 356 355 354 353 353 352 351 351 351 350 350 351 351 351 351 350 350 351 352 353 353 354 353 353 353 354 353 352 352 352 352 351 349 349
319 320 320 322 325 327 327 327 330 330 328 328 333 337 339 339 339 340 344 348 349 350 351 352 352 353 353 355 357 358 357 355 356 356 356 355 355 355 355 355 355 356 357 357 358 358 358 358 357 357 357 356 356 355 354 354 353 353 352 352 351 351 351 351 351 351 351 351 351 352 353 353 353 353 352 353 353 352 353 353 353 354 353 351 350
318 319 319 321 325 328 329 330 331 332 332 332 335 338 340 342 343 342 342 345 348 351 352 351 351 352 352 352 354 355 355 356 356 357 358 358 357 357 357 356 357 357 358 357 358 358 358 358 357 357 356 356 356 355 355 355 355 354 354 353 353 352 351 350 351 351 352 352 353 352 352 353 354 354 353 353 353 353 354 354 355 355 354 353 351
318 319 319 321 324 328 330 331 331 332 334 335 336 337 339 341 343 344 343 344 344 347 350 353 354 355 354 353 353 353 353 355 356 357 358 359 358 359 358 358 358 358 357 358 358 358 358 358 358 358 357 357 356 356 356 356 355 355 354 354 353 353 352 350 351 351 351 352 352 352 352 352 354 354 353 353 354 355 355 356 356 356 355 354 351
318 319 320 321 325 329 331 332 332 333 335 336 337 338 339 340 341 342 342 342 343 345 346 349 354 356 357 356 355 355 355 357 357 358 359 359 360 359 359 358 358 358 358 359 359 359 359 359 359 358 358 358 358 357 357 356 356 355 355 354 354 353 352 351 352 352 351 351 351 351 352 353 353 353 354 355 355 356 356 357 357 356 355 354 352
318 319 320 322 327 331 332 333 333 334 335 335 336 338 339 339 340 340 341 341 342 344 344 345 350 354 356 357 358 358 359 360 360 360 360 361 360 360 359 359 359 359 359 358 359 359 359 359 359 360 359 359 359 359 358 358 357 355 355 355 354 354 354 354 354 353 352 351 351 352 352 352 353 353 354 355 355 356 357 357 357 356 355 354 353
318 319 320 323 327 330 332 332 333 334 334 335 336 337 338 338 339 339 340 341 342 343 343 345 349 352 354 357 358 360 360 361 361 361 361 361 361 361 360 360 360 360 359 359 360 360 359 360 360 360 360 359 359 359 360 359 358 357 356 356 355 355 355 355 355 355 354 354 353 353 353 353 354 353 354 355 356 356 356 357 356 355 355 354 354
319 319 319 323 327 329 330 331 332 333 335 335 336 336 337 338 338 339 340 340 342 343 343 345 347 351 354 357 358 360 361 362 362 361 361 361 361 361 360 360 360 360 360 360 360 360 360 361 360 360 360 360 359 359 360 360 360 359 358 358 357 357 356 356 356 356 356 355 355 354 354 354 354 354 355 356 357 356 356 357 356 354 353 353 353
318 318 319 322 326 329 329 329 330 332 333 335 336 337 337 338 338 338 340 341 342 343 344 345 347 350 354 356 359 359 360 361 361 361 362 362 362 361 361 361 361 361 360 360 361 361 360 361 360 361 361 360 360 360 360 360 360 361 360 359 359 358 358 358 358 357 357 356 356 355 355 354 354 356 356 356 357 356 356 356 355 354 353 353 353
317 318 320 323 326 328 329 328 329 331 332 334 335 337 338 338 338 338 339 340 342 343 344 345 346 349 352 354 357 359 359 360 361 362 362 362 362 362 362 362 361 361 361 361 361 361 360 361 361 360 360 360 360 360 360 360 360 361 361 360 360 359 359 359 359 358 357 357 356 356 355 355 355 356 356 356 357 356 355 355 354 354 353 353 353
317 319 321 323 326 328 329 329 330 331 332 333 334 336 337 338 337 338 338 339 340 342 343 345 346 348 350 352 355 357 358 359 359 361 361 362 362 362 362 362 362 362 362 361 361 361 361 360 361 360 361 361 360 360 360 360 359 360 360 360 360 360 360 360 359 359 358 357 357 357 357 356 356 356 356 356 355 354 354 354 353 353 353 354 353
319 320 321 323 326 328 329 330 331 332 332 333 333 334 335 336 336 336 336 338 339 339 341 344 345 347 348 350 352 354 357 358 358 360 360 360 361 362 362 362 362 362 362 362 362 361 361 361 361 361 361 361 361 361 360 360 359 359 359 360 360 360 360 359 359 359 359 358 358 357 357 356 356 356 355 353 353 352 352 352 352 352 353 352 352
320 321 321 323 326 329 329 330 331 332 332 333 333 332 333 334 335 334 335 337 338 339 340 341 343 345 347 348 350 352 354 355 356 358 358 359 360 361 361 362 362 362 362 362 362 362 362 361 361 361 360 360 361 360 360 360 360 360 360 361 361 361 360 360 359 359 359 358 358 357 356 355 354 353 352 351 351 352 351 351 350 350 351 350 350
320 321 322 324 327 328 329 329 330 330 331 331 330 330 331 332 333 332 333 336 338 339 340 340 342 343 345 347 348 350 352 353 354 355 356 357 358 358 359 360 360 361 361 362 362 362 362 362 361 361 361 361 360 360 359 359 359 359 359 360 360 360 359 359 358 359 359 358 357 356 355 354 352 351 350 349 350 352 352 350 349 349 349 349 348
321 322 323 324 326 327 327 328 328 328 329 328 328 328 329 331 331 330 331 334 337 338 339 341 342 343 345 346 347 350 352 353 353 354 355 355 356 357 357 357 357 358 358 360 360 361 361 361 361 361 361 360 360 360 360 360 358 357 357 358 359 358 358 358 358 358 357 355 352 352 353 352 351 350 349 349 351 351 350 349 348 347 347 345 344
321 322 323 324 324 325 325 326 326 327 327 327 327 327 328 329 329 327 327 330 334 336 338 340 342 343 345 346 347 348 350 351 353 353 354 355 355 356 356 355 355 356 356 356 357 358 358 359 359 358 359 358 358 358 358 357 357 356 356 357 358 358 358 359 357 353 350 348 349 350 351 349 349 349 349 349 349 349 347 346 346 344 342 341 340
322 323 323 322 322 323 324 325 325 325 325 325 326 326 326 326 326 326 326 328 331 333 335 338 341 343 344 346 347 348 349 350 351 352 353 354 354 354 354 354 354 355 355 355 355 356 356 356 356 356 356 356 355 355 355 354 354 354 354 355 356 356 357 356 353 348 346 347 349 349 348 347 347 347 346 346 345 345 344 343 342 340 338 337 336
321 321 321 320 321 322 323 323 323 324 324 324 325 324 324 324 324 324 326 327 329 331 333 335 338 341 343 344 346 347 348 349 350 350 350 351 351 351 352 352 352 352 352 352 353 353 353 354 354 354 354 354 353 352 351 349 349 349 349 350 350 350 351 351 348 346 346 348 347 345 345 345 345 345 343 342 342 342 340 339 338 336 335 334 334
319 319 319 319 320 321 322 321 322 322 322 323 323 322 322 322 323 324 325 327 328 330 332 334 336 338 340 341 343 344 344 345 346 347 347 348 348 348 347 348 348 348 348 348 349 349 349 350 350 351 351 350 348 346 344 343 343 344 344 344 344 344 345 345 344 344 345 346 345 343 342 342 342 341 340 339 339 338 337 336 335 334 333 332 332
319 319 319 319 320 320 319 319 319 319 320 320 320 320 320 321 321 322 324 325 326 328 330 332 333 334 336 337 337 338 339 340 341 342 343 343 344 344 343 343 342 341 341 341 342 342 342 342 342 341 341 340 340 339 338 339 339 339 338 339 339 339 340 340 341 340 341 341 339 339 338 338 337 337 336 335 335 335 334 333 332 331 331 330 329
319 320 319 318 318 318 317 317 316 316 317 317 318 318 318 319 320 321 322 323 324 325 326 328 329 330 330 330 330 330 332 334 335 336 336 336 336 337 338 337 335 334 332 332 332 333 333 333 332 331 331 331 332 332 333 333 333 333 333 333 333 334 335 336 336 335 335 335 334 333 333 334 334 333 332 331 331 331 330 329 329 328 328 328 328
Wind_Speed
34 32 30 29 28 27 25 24 23 22 22 23 23 24 23 23 22 21 21 20 19 19 18 17 17 16 15 15 15 15 15 14 14 14 13 12 11 10 9 9 9 8 9 9 9 9 8 8 8 8 8 9 8 9 9 9 10 10 9 10 10 10 11 12 14 15 13 10 8 8 8 7 8 8 8 9 11 14 16 17 17 17 16 14 12
35 33 31 30 29 27 26 25 24 23 23 23 23 24 24 23 23 22 22 21 20 20 19 19 18 18 18 17 16 16 16 15 15 15 15 13 12 11 10 10 10 9 9 9 9 9 9 9 9 8 9 9 9 9 9 9 10 10 10 10 10 10 11 12 14 15 14 12 10 9 8 7 8 9 9 10 11 14 16 17 17 16 15 14 11
35 34 32 30 29 28 28 27 25 24 24 24 23 24 24 24 24 23 23 22 21 20 20 20 20 19 20 20 19 18 17 17 16 16 16 14 13 12 11 11 11 11 11 10 10 10 11 10 10 9 10 10 10 10 10 10 10 10 10 10 11 11 11 12 13 14 15 14 12 11 10 9 9 9 9 10 11 14 15 16 16 15 15 15 12
35 36 35 32 30 30 30 29 28 26 26 25 24 24 24 25 25 24 24 24 23 21 21 21 20 20 21 22 21 20 19 18 18 18 16 15 14 13 12 12 12 12 12 12 12 12 12 12 11 11 11 11 11 11 11 12 12 11 11 11 11 11 11 11 12 13 15 16 14 13 12 11 10 9 10 10 10 12 14 15 15 13 13 14 13
32 35 35 34 34 33 32 31 30 29 28 26 25 24 24 25 25 25 26 26 25 23 22 22 21 21 22 23 22 22 21 20 20 19 18 16 15 14 14 13 13 13 13 13 14 14 15 14 13 13 13 13 12 12 12 12 13 13 12 12 11 11 12 12 13 13 15 17 16 15 13 13 11 10 10 10 11 12 13 14 13 12 12 13 13
29 31 32 34 35 35 34 32 31 30 29 27 26 25 25 25 25 25 27 27 27 26 25 24 23 23 23 23 23 23 22 22 22 21 20 18 17 17 16 15 14 14 14 14 14 15 16 16 16 15 15 15 14 13 13 13 13 14 14 13 12 12 13 13 14 15 16 17 17 17 15 14 13 12 11 11 11 12 14 14 14 13 11 11 13
30 31 32 34 35 35 34 33 32 31 29 27 26 26 26 25 25 25 26 28 29 29 28 27 26 24 24 24 24 24 24 23 23 23 22 21 20 19 19 18 18 17 16 16 15 16 16 16 17 17 17 17 16 16 15 15 15 15 15 14 14 14 14 14 15 15 16 17 18 18 17 16 15 14 13 12 11 12 14 15 15 15 13 11 11
31 33 34 34 36 35 34 33 33 32 30 29 27 27 27 27 26 26 26 27 29 30 30 30 28 28 27 27 26 26 26 26 26 25 24 24 23 22 22 22 21 21 20 19 19 19 18 17 17 18 18 18 18 18 17 17 17 17 16 16 15 15 15 15 16 16 17 18 19 19 18 18 17 16 15 14 12 11 12 14 15 16 16 13 12
30 33 34 34 35 35 34 33 33 32 31 31 30 29 29 29 28 27 27 26 27 29 31 31 31 31 31 30 29 29 29 29 29 28 27 27 26 25 25 25 24 24 23 23 22 22 21 20 19 19 19 18 18 19 19 19 19 19 18 17 17 17 17 17 17 18 18 19 19 19 19 20 18 17 17 16 13 11 12 13 14 15 16 15 13
27 31 33 34 33 33 33 33 32 32 32 31 31 30 30 29 29 28 28 27 27 28 29 31 32 33 33 33 32 32 32 32 31 30 30 29 29 28 28 28 27 27 26 26 25 24 23 23 22 21 20 19 20 20 20 21 21 21 20 20 20 19 19 20 20 20 20 21 21 20 20 21 19 18 18 17 15 13 12 12 13 14 16 16 14
27 28 30 32 33 32 32 32 32 32 31 31 30 30 30 30 29 28 28 28 27 27 27 29 31 33 34 34 34 34 34 34 33 32 31 30 30 30 30 30 29 29 29 28 27 26 26 25 25 24 23 21 21 22 22 22 22 23 23 22 23 22 23 23 23 23 22 23 22 21 21 21 20 18 18 17 16 15 14 13 13 14 16 17 16
26 28 29 31 32 32 31 32 33 33 32 31 30 30 30 30 30 29 29 28 27 27 27 27 28 30 32 33 34 35 35 34 33 32 32 32 31 31 31 31 31 31 31 30 29 28 27 27 27 26 25 24 22 23 23 24 24 24 24 24 24 25 25 25 25 25 24 24 24 23 23 22 21 19 17 17 17 17 16 16 15 16 17 17 18
20 24 27 30 32 32 31 32 33 32 32 32 31 31 31 31 30 29 29 29 28 28 27 27 27 27 28 31 32 33 34 34 33 33 33 32 32 32 33 33 33 32 32 31 31 30 29 29 28 28 27 26 25 24 25 25 25 26 26 26 26 26 26 26 26 26 26 26 26 26 25 23 21 20 18 17 18 19 19 18 18 18 19 19 18
15 18 22 27 30 31 31 32 33 32 32 32 32 32 32 31 30 30 29 30 29 28 28 28 27 27 27 28 29 30 31 33 33 33 33 33 33 33 33 33 33 33 33 33 32 31 30 30 30 29 29 28 27 26 26 27 27 27 27 27 27 28 28 28 28 28 27 27 28 28 26 24 23 22 20 19 20 21 21 20 20 20 21 21 20
10 14 17 22 26 28 30 31 33 33 32 32 33 33 33 31 30 30 31 31 29 28 29 29 29 27 27 27 28 29 30 30 31 31 31 32 31 31 32 33 34 34 34 34 33 32 32 31 31 30 29 29 29 28 27 27 28 28 28 28 28 28 29 30 29 29 28 28 28 28 27 25 24 23 22 22 22 22 22 23 23 23 23 23 23
7 10 13 17 20 25 27 28 29 31 33 34 34 34 34 33 31 30 31 31 30 30 30 30 30 29 28 28 29 29 29 29 29 29 29 29 29 29 31 32 33 34 35 35 34 33 32 32 32 31 30 30 30 29 28 27 28 29 29 28 28 29 30 31 30 30 29 29 28 28 27 26 26 24 24 24 23 23 24 24 25 25 24 24 24
5 7 10 12 15 20 25 27 28 28 30 33 35 35 34 34 33 32 32 32 31 31 30 30 30 29 29 28 28 29 29 28 27 27 28 27 27 29 31 32 33 34 35 35 34 33 32 32 31 31 30 31 30 29 28 27 28 29 29 29 29 30 31 32 31 31 30 30 29 29 28 28 27 26 25 24 24 23 23 24 25 24 22 22 22
4 5 7 9 12 16 20 25 29 29 28 29 32 34 36 35 34 34 34 33 32 32 31 31 30 30 30 29 28 28 28 27 26 26 26 26 26 28 29 30 33 35 35 35 34 34 33 32 31 31 31 31 31 30 29 28 28 30 30 29 29 30 32 32 31 31 31 31 30 30 30 29 28 27 26 24 23 22 23 24 23 21 19 19 19
5 4 5 7 10 13 16 20 25 29 30 29 28 29 33 36 36 36 35 34 34 33 33 34 33 31 31 30 29 29 29 28 27 26 26 26 26 27 28 29 31 34 36 35 35 34 34 33 32 31 32 32 31 30 30 29 29 31 31 29 29 31 32 31 30 30 31 31 31 31 30 29 28 27 26 25 23 22 23 23 21 20 20 19 18
8 6 5 6 9 11 14 17 20 24 28 31 30 27 27 29 33 36 36 34 34 35 35 35 35 33 32 32 31 31 30 30 29 27 26 26 26 27 28 29 31 34 35 35 35 35 34 34 33 33 33 33 32 31 31 31 31 31 31 30 32 32 32 30 30 30 30 30 29 29 29 29 28 28 28 26 25 24 23 22 22 21 22 21 20
12 10 8 7 9 11 13 16 19 21 25 29 32 32 28 24 25 31 35 34 34 34 34 34 35 34 33 33 33 32 31 31 29 27 26 26 27 27 28 30 31 32 33 34 34 35 35 34 34 34 33 33 32 31 31 31 31 31 32 33 33 31 29 29 29 29 28 29 28 28 28 29 28 28 28 28 27 26 24 23 23 23 23 23 21
15 15 12 9 8 10 13 16 18 20 23 25 28 30 30 27 24 26 30 33 33 34 33 33 33 34 34 34 34 33 32 30 29 28 27 27 27 28 29 30 30 30 31 32 34 35 36 36 35 34 33 33 32 31 31 30 30 31 32 33 32 29 27 27 27 27 27 27 26 26 27 28 28 28 29 29 29 28 26 25 24 24 24 24 22
17 18 17 13 10 10 12 16 18 20 21 22 24 26 27 28 28 28 28 30 32 33 34 34 33 34 34 34 35 34 33 31 30 29 29 28 28 29 29 29 29 29 30 32 33 35 35 36 35 33 32 32 31 31 30 29 30 32 32 31 29 26 24 24 24 26 26 25 25 26 27 28 29 29 29 29 29 28 26 24 24 24 25 25 25
19 19 19 18 15 12 12 15 17 20 21 23 25 26 26 27 28 29 29 30 30 32 35 35 35 36 36 36 36 35 34 33 31 30 30 30 29 29 29 29 28 28 30 32 33 33 34 35 34 32 31 31 31 30 29 29 30 31 30 28 26 24 23 23 24 25 25 25 26 27 28 29 30 30 29 29 28 26 25 24 25 26 26 26 27
21 21 21 20 18 15 15 15 17 19 21 22 25 26 25 26 27 27 29 29 29 31 33 32 32 35 36 37 38 37 36 34 32 30 30 30 30 30 29 28 28 28 31 32 32 32 32 31 31 30 30 30 29 29 29 29 30 29 27 25 24 24 25 26 26 25 26 27 27 29 30 30 31 30 29 27 27 27 26 26 27 28 27 27 28
23 22 22 22 21 19 18 17 17 18 19 20 22 25 25 26 28 28 27 28 29 31 31 29 28 30 31 33 35 36 37 36 34 31 31 30 30 30 29 29 29 29 31 32 31 30 29 28 28 28 29 29 30 30 31 30 29 28 27 26 26 27 28 28 28 28 28 28 29 30 30 30 31 30 29 28 29 28 28 28 28 28 28 28 28
24 24 24 24 23 22 21 19 19 20 21 20 21 23 24 25 29 31 30 28 29 30 30 30 31 32 32 34 35 34 35 36 35 33 32 32 31 30 30 29 29 30 31 32 31 30 29 28 27 27 28 29 31 31 31 30 30 30 30 29 29 30 30 30 30 29 29 29 29 31 31 31 31 31 30 30 30 29 28 28 28 28 28 28 27
25 26 26 25 24 23 23 22 20 22 24 24 22 21 21 23 29 34 35 34 31 30 29 30 35 37 37 38 37 35 35 35 34 33 33 32 31 29 29 29 29 30 31 32 30 28 27 27 28 29 30 32 33 34 34 33 33 33 33 32 32 32 32 32 31 31 31 30 31 32 33 32 32 32 31 31 31 30 29 29 29 28 28 28 27
26 26 27 26 24 23 24 24 22 23 25 27 26 23 21 22 26 32 36 38 37 35 32 31 33 36 38 40 40 40 38 34 29 29 29 29 29 28 27 27 28 28 27 26 25 26 28 29 31 33 34 35 36 37 37 37 36 35 35 34 34 34 34 34 34 34 33 32 31 32 33 33 33 33 33 32 31 30 30 30 29 28 28 28 28
27 27 28 28 26 24 24 25 24 24 26 28 28 27 25 23 25 29 34 38 41 41 40 38 35 34 34 37 39 41 40 34 28 27 28 27 27 27 27 26 26 25 24 23 24 27 30 32 34 36 37 38 38 39 39 38 37 37 36 36 35 35 35 36 35 34 34 32 32 32 33 33 33 33 33 32 30 30 31 31 29 29 29 28 29
28 28 28 28 27 25 25 26 26 25 26 28 29 28 27 26 26 28 32 37 41 44 45 46 45 42 40 40 39 40 41 37 32 31 31 29 29 28 27 26 25 24 23 23 25 28 30 31 34 36 39 40 40 40 40 39 38 37 36 36 36 35 35 36 34 33 33 33 33 33 33 33 34 34 34 33 31 31 32 32 31 30 29 29 29
28 29 28 27 27 26 26 27 26 25 26 29 29 28 27 26 26 26 28 32 37 41 44 47 48 48 48 47 46 45 44 40 36 35 33 32 32 30 28 26 25 24 23 25 27 29 30 31 33 34 37 40 40 39 39 39 39 38 37 36 36 36 35 35 33 32 32 32 33 33 33 34 34 34 34 33 33 33 33 33 32 30 29 29 29
28 29 28 27 26 25 26 27 27 26 26 29 29 26 26 26 25 26 27 28 32 36 41 44 46 47 49 49 49 49 47 44 40 38 36 35 35 33 31 29 28 27 26 27 30 31 31 32 33 33 36 38 37 37 37 37 37 38 38 37 36 35 35 33 31 31 32 32 33 33 33 33 33 33 32 32 33 33 33 34 33 31 30 29 29
30 29 28 27 27 26 26 27 27 26 25 27 28 27 27 26 26 27 29 29 30 32 35 38 41 43 46 47 48 47 47 45 42 40 39 38 38 36 35 32 30 29 30 31 32 32 32 32 32 33 34 35 34 34 34 34 35 37 37 36 36 35 34 32 31 32 33 33 34 34 33 32 31 31 30 31 31 32 33 33 33 32 31 30 30
31 30 28 27 27 27 26 26 26 25 25 27 29 30 31 31 30 31 32 32 32 33 33 34 36 38 40 42 43 43 43 42 42 41 41 40 39 38 38 37 35 34 34 34 34 34 33 32 32 32 32 32 31 31 31 31 32 34 35 36 35 35 34 33 33 34 35 35 35 34 32 31 30 30 30 31 32 34 34 33 32 31 31 31 32
31 30 28 27 27 28 27 26 27 27 28 31 33 33 34 34 35 35 34 35 36 37 36 35 34 34 36 37 37 37 38 38 37 37 39 39 39 39 40 40 40 39 38 37 36 35 34 33 33 32 32 31 30 30 30 30 31 33 34 35 35 35 35 34 34 35 36 36 35 34 32 32 32 32 32 33 34 35 34 32 32 31 31 33 34
29 29 28 28 27 27 27 28 29 30 32 34 35 35 36 37 37 36 35 36 36 37 39 37 34 33 35 35 34 32 32 32 31 31 32 33 35 38 40 41 40 41 40 39 38 36 35 35 34 34 34 33 31 30 29 29 31 33 33 34 35 35 35 35 35 36 37 37 36 35 35 34 34 34 34 34 35 34 33 32 32 32 32 34 35
28 28 28 28 27 27 28 29 30 31 33 35 36 36 37 38 38 37 36 36 36 37 39 37 33 32 32 32 32 31 29 27 27 27 27 27 29 33 36 38 39 40 40 39 38 37 36 36 36 35 35 35 33 32 30 30 30 31 33 33 33 34 34 34 35 37 39 39 38 38 37 36 36 36 36 36 35 34 33 31 31 31 32 33 35
28 28 27 27 27 28 30 31 31 31 32 34 35 35 36 37 37 36 36 36 35 36 37 35 33 31 29 27 29 31 29 25 25 25 23 22 23 25 28 31 34 37 38 38 37 37 36 36 36 36 35 35 34 33 33 32 31 31 32 32 33 33 34 34 35 38 40 41 41 39 37 37 37 36 36 36 36 34 32 30 31 31 31 32 34
27 25 24 27 29 29 30 31 31 31 32 33 33 34 35 36 36 35 35 34 33 33 34 34 34 33 28 25 28 32 31 27 25 23 21 21 22 22 23 26 28 31 34 35 36 36 36 36 36 35 34 35 35 35 34 34 33 32 32 33 34 35 35 35 37 38 39 40 41 40 38 37 37 37 37 37 35 33 30 30 31 31 31 31 33
24 22 23 26 28 28 29 30 31 31 31 32 32 32 34 35 35 35 35 34 33 31 31 33 33 31 28 27 30 32 31 28 25 22 21 22 23 23 24 24 25 27 29 31 33 34 35 35 35 35 34 35 36 36 36 35 34 34 34 35 36 37 37 37 39 39 39 41 43 42 40 39 39 38 36 36 34 31 28 28 30 31 32 32 33
21 22 24 27 27 27 28 29 30 30 30 30 30 31 32 34 34 33 33 34 33 32 31 31 31 29 29 30 32 32 32 30 27 24 22 23 23 24 24 24 24 25 26 28 31 32 33 34 35 35 35 36 37 37 37 36 36 36 36 37 37 38 38 38 39 40 41 44 46 45 42 40 39 37 35 33 31 27 25 26 29 31 32 33 32
21 24 26 26 27 27 26 26 27 27 27 28 28 28 29 30 31 32 33 33 33 33 33 33 32 29 28 29 30 30 31 30 28 26 24 24 24 24 24 24 25 26 27 27 29 30 32 34 36 36 35 35 35 36 36 36 35 35 36 36 36 36 37 38 39 40 41 43 45 44 40 38 36 35 32 30 28 25 24 25 26 28 31 32 29
23 25 26 26 25 24 23 22 22 23 23 23 23 24 25 26 27 28 29 31 32 32 32 33 32 30 28 28 28 28 28 28 28 28 27 26 26 26 26 26 27 27 27 27 28 30 31 33 35 35 34 33 34 35 36 36 35 35 35 35 35 35 37 39 41 43 43 43 42 40 38 36 34 33 31 29 26 25 24 24 24 25 29 28 24
23 23 24 23 22 20 20 20 20 20 20 20 19 20 21 22 23 23 25 27 29 30 31 31 31 29 27 26 27 27 26 26 27 28 29 29 29 28 28 26 26 26 27 28 29 30 32 33 34 34 33 33 34 36 38 38 37 36 35 34 35 37 38 39 40 42 42 39 36 34 34 34 33 32 31 29 26 24 23 22 22 24 25 23 21
20 20 20 20 18 18 18 18 18 18 17 16 16 16 17 18 19 20 21 22 24 25 27 28 29 29 28 27 27 28 28 27 27 27 28 29 29 29 28 26 25 25 26 27 28 30 31 32 33 32 32 33 34 35 36 36 35 35 34 34 35 37 38 37 36 37 36 31 28 29 29 27 25 25 25 25 23 22 22 22 23 25 24 23 23
17 18 18 18 18 18 18 17 16 15 14 14 13 13 13 14 14 15 17 18 18 19 22 23 25 26 27 27 27 27 27 27 27 27 27 27 28 28 28 27 27 27 27 27 28 29 31 32 31 31 31 32 33 34 34 33 33 33 33 33 33 34 35 35 35 34 29 25 24 25 23 19 18 19 21 22 22 22 22 23 24 25 24 23 23
18 18 18 18 18 18 17 15 14 13 12 12 11 11 11 11 11 12 13 14 14 15 17 19 20 22 24 26 27 27 27 27 27 26 26 26 27 28 29 29 28 28 28 28 29 29 30 30 30 30 31 32 33 33 32 30 30 29 29 29 30 31 31 32 32 29 24 21 20 20 17 16 18 19 20 21 22 23 23 23 24 24 24 23 23
17 15 15 16 17 17 15 14 12 10 10 10 9 8 9 9 9 10 11 12 13 13 14 16 17 18 20 22 24 25 26 26 26 26 26 27 28 28 28 28 28 27 27 27 28 28 29 30 30 31 31 31 30 28 26 25 24 24 24 24 25 26 26 26 25 23 20 19 18 15 14 16 17 18 19 20 20 20 21 22 23 24 24 24 24
13 12 13 14 15 15 14 12 9 8 8 7 6 7 8 8 8 8 9 10 11 12 13 14 15 16 18 19 21 22 23 24 24 25 25 26 27 27 27 26 25 24 24 24 25 25 26 26 25 24 23 22 21 20 19 19 18 18 17 16 17 17 18 17 16 15 14 14 13 14 16 18 19 20 20 20 20 21 22 23 23 24 24 24 24
12 12 12 13 13 13 12 10 9 7 7 6 6 6 7 7 7 7 8 9 10 11 12 13 14 15 16 16 17 18 20 21 21 21 22 22 23 23 24 23 21 20 19 18 19 19 19 18 16 14 13 13 13 14 15 15 14 14 14 14 13 13 13 13 13 13 12 13 14 16 18 19 21 21 22 22 22 22 22 22 22 21 21 20 19
Wind_Direction
236 236 235 235 234 235 235 235 235 234 234 235 235 234 233 232 232 232 231 230 229 229 230 229 229 231 234 237 239 237 237 237 239 240 242 242 242 243 245 246 248 247 246 246 245 247 247 247 248 247 250 254 257 261 264 267 272 276 281 287 291 296 300 302 305 308 316 323 324 323 319 314 321 326 330 337 337 336 339 341 344 342 340 343 336
239 238 237 238 237 237 237 237 237 236 236 236 236 236 235 233 233 232 232 231 230 231 232 231 229 229 231 235 237 237 236 236 237 239 242 245 245 245 246 248 251 252 253 254 254 255 255 252 253 253 253 255 256 260 263 266 270 274 279 283 285 289 293 295 300 304 309 315 319 320 317 315 321 324 327 334 336 336 337 341 347 345 340 345 340
240 241 240 240 240 240 240 240 240 239 238 239 238 238 237 236 235 234 233 233 232 232 233 232 231 229 230 232 234 235 235 233 234 236 239 242 244 244 244 246 251 254 256 258 258 259 259 257 256 257 258 258 258 259 261 264 268 271 274 277 279 282 285 289 294 298 303 307 311 315 315 315 321 322 322 330 335 337 338 340 347 347 340 342 339
240 243 243 242 242 241 242 242 242 241 241 241 241 240 240 240 238 236 235 235 234 233 233 232 231 230 231 231 232 233 233 231 231 232 234 238 242 246 249 250 252 254 257 259 259 260 261 261 260 261 261 261 260 259 260 263 267 270 271 272 273 276 279 282 287 292 296 300 304 308 309 310 316 317 316 320 327 334 337 338 342 346 339 336 335
241 244 245 244 243 243 243 244 244 243 243 244 244 243 243 243 242 240 238 237 235 235 234 233 232 231 231 232 232 232 231 230 229 230 233 239 244 251 256 257 258 259 260 261 262 262 262 262 261 261 262 262 262 261 261 262 264 266 269 270 269 271 274 276 280 284 287 293 298 302 305 306 308 310 309 310 315 323 329 332 335 338 335 332 332
241 243 244 244 244 244 245 245 245 246 246 246 246 246 245 246 245 243 242 241 239 237 236 235 234 232 232 232 232 230 229 229 229 230 235 240 245 250 254 257 260 263 264 264 264 264 264 264 262 260 260 261 262 262 263 263 263 264 265 266 266 267 270 272 275 277 281 287 292 296 300 301 301 302 302 303 308 315 320 324 327 328 329 328 327
243 243 243 244 243 244 246 247 247 248 248 248 248 248 247 247 247 247 245 244 243 241 239 237 235 234 234 233 233 232 230 230 230 233 237 241 244 247 251 255 259 262 264 265 265 265 265 264 264 261 260 260 260 260 261 262 263 263 262 263 263 264 268 272 273 275 278 282 287 291 294 295 295 296 297 297 302 307 311 315 319 322 326 328 324
244 244 245 246 245 246 248 249 250 250 250 251 250 249 250 249 249 249 248 246 245 244 242 241 239 238 237 236 235 235 234 234 235 236 238 241 244 246 249 253 257 260 263 265 265 266 265 264 263 261 259 259 259 259 259 259 260 261 261 261 262 263 266 269 271 274 277 280 283 286 288 289 290 291 293 293 295 300 302 305 309 313 319 325 325
242 246 248 248 248 250 250 251 252 253 253 253 252 251 252 252 251 251 250 249 248 246 244 244 243 242 241 240 239 239 239 239 239 239 241 242 244 247 250 252 256 259 261 263 264 265 265 264 262 260 259 258 257 256 256 256 257 258 259 259 260 261 263 265 268 272 275 278 280 282 284 286 286 287 288 287 288 293 295 297 300 304 309 317 320
233 243 247 249 250 252 253 253 254 255 254 254 254 254 253 254 253 253 253 252 251 249 247 245 244 244 244 244 244 243 243 242 242 243 244 245 247 249 251 253 255 258 260 261 263 263 263 263 263 262 261 258 255 254 254 255 255 254 255 256 257 259 261 264 266 270 273 275 277 279 282 283 284 284 283 283 284 289 291 293 297 300 303 309 313
225 233 241 247 252 253 255 255 255 255 256 256 256 256 255 255 255 255 254 254 254 253 251 247 245 244 244 245 246 246 246 244 244 244 245 247 249 251 253 255 256 258 259 260 261 262 262 263 263 264 264 261 258 254 252 253 254 254 253 253 254 257 259 262 265 268 270 271 273 276 279 281 283 281 279 281 284 285 287 288 292 297 300 303 308
224 227 231 239 247 251 253 255 256 257 258 258 257 257 257 257 257 256 255 254 254 254 253 251 248 245 244 244 245 246 247 246 245 245 246 247 249 251 253 255 257 258 259 260 260 261 261 262 263 264 264 264 262 258 253 251 252 253 253 252 253 254 256 259 262 265 267 268 270 272 276 280 283 281 278 280 281 282 284 286 288 292 295 297 302
230 230 231 234 240 245 248 251 255 258 259 259 260 259 259 258 257 257 256 255 255 254 254 253 252 250 248 247 247 247 248 248 247 246 246 246 248 251 253 255 256 257 258 259 259 260 260 261 262 262 263 264 263 259 255 253 252 252 252 252 252 253 254 256 258 260 262 264 266 269 274 278 280 279 278 277 278 280 283 286 287 289 292 295 298
241 241 239 238 240 242 244 247 251 255 258 260 261 260 259 259 258 258 258 257 256 254 253 253 253 251 251 250 250 250 250 250 249 248 248 248 248 250 252 254 255 256 257 257 258 258 259 259 260 260 261 262 260 258 255 253 252 251 252 252 253 254 255 255 256 257 258 260 263 267 271 274 275 277 278 277 276 278 280 283 286 287 289 292 295
245 247 247 245 243 242 243 245 248 252 255 258 260 260 260 260 259 258 258 258 258 256 254 254 253 251 251 251 251 251 250 250 250 249 248 248 248 250 252 254 254 255 255 255 255 256 256 257 258 258 258 258 257 256 254 253 253 252 252 253 254 255 255 256 256 257 258 260 262 265 268 270 272 273 275 276 277 277 278 279 282 283 286 289 292
252 244 244 245 243 241 240 241 244 249 252 255 257 259 260 259 259 258 257 257 258 258 256 254 253 251 250 251 251 251 250 249 250 250 249 249 250 252 252 252 253 254 253 252 252 252 253 254 255 255 254 255 255 253 252 252 252 253 253 253 254 255 256 256 256 257 258 260 261 263 265 267 269 270 271 273 275 277 278 279 280 282 285 288 290
275 256 246 242 242 240 238 238 239 242 247 250 253 255 258 259 259 258 257 256 257 257 257 255 255 253 252 251 250 249 249 249 249 250 250 250 252 252 252 252 253 252 251 251 250 250 250 250 251 252 251 251 252 251 250 250 251 252 253 253 254 255 256 258 259 258 258 259 261 262 263 264 266 267 267 269 271 274 276 278 281 285 287 287 288
294 275 265 253 246 243 241 240 240 240 241 244 248 251 254 257 259 259 258 257 257 258 259 259 258 257 255 252 250 249 249 249 249 249 250 250 251 252 253 253 253 252 250 250 249 249 248 248 248 248 249 250 251 250 249 248 249 251 252 253 254 255 256 258 261 262 261 260 261 262 263 264 265 266 267 267 267 267 270 274 279 282 281 280 283
326 301 284 271 260 251 247 245 244 243 242 243 245 248 251 254 256 258 259 259 260 260 260 261 260 259 257 256 254 253 252 252 251 249 248 249 251 251 252 253 253 250 249 248 248 248 247 246 245 245 247 249 249 248 247 247 248 249 251 253 254 254 256 258 260 262 264 263 262 262 263 264 264 265 265 265 263 262 264 269 273 274 274 276 279
324 322 308 291 277 266 258 255 253 250 248 247 245 246 248 250 253 256 258 259 260 260 260 260 261 260 259 258 257 255 254 253 253 250 248 249 250 250 251 251 250 248 247 247 247 246 246 245 244 244 245 247 248 247 246 246 247 249 250 252 253 254 256 259 260 261 262 263 263 262 262 263 264 264 264 263 262 260 260 263 265 267 271 273 276
308 310 312 304 292 283 271 264 261 258 255 251 246 243 243 244 247 252 255 256 257 259 259 260 261 261 259 259 258 256 254 253 253 252 249 248 248 248 249 248 247 247 249 248 247 246 245 243 243 243 244 245 246 246 245 245 247 248 250 252 254 256 258 260 261 261 261 261 260 261 262 263 263 263 263 263 263 261 260 259 261 264 267 270 273
298 299 301 302 303 298 285 274 268 262 259 258 254 246 243 245 247 248 251 253 254 255 257 257 258 260 259 259 258 255 253 252 253 252 249 247 247 247 247 246 246 250 253 251 248 245 243 242 242 242 242 243 243 243 243 244 245 247 249 252 255 257 257 257 258 259 260 261 261 261 261 262 262 262 262 263 263 263 262 260 260 262 264 267 269
290 292 294 294 296 298 293 283 273 264 258 258 257 249 242 244 248 249 249 251 252 254 256 256 257 258 258 258 257 255 252 251 250 250 249 247 246 246 245 245 247 251 253 252 248 245 242 241 241 241 241 242 242 241 241 242 243 246 248 251 253 254 254 253 253 254 256 260 262 261 260 261 262 263 263 263 264 264 265 264 263 263 264 265 266
285 286 289 291 290 287 288 286 277 266 258 253 253 250 241 238 245 249 251 251 251 253 255 257 257 258 258 258 257 255 254 252 249 248 249 248 247 246 244 244 247 249 250 250 249 247 244 242 241 240 240 241 241 241 240 241 242 245 246 248 249 250 250 249 249 251 254 257 259 260 260 262 263 264 265 266 268 269 269 268 266 265 264 265 266
282 282 284 289 289 284 282 283 281 274 264 252 249 249 244 239 242 247 249 249 250 251 253 253 254 256 257 258 257 256 256 254 251 248 248 248 248 246 245 244 245 246 248 248 248 249 248 246 243 241 240 240 241 241 240 239 240 242 244 245 246 246 246 247 248 250 252 255 257 258 260 263 265 267 268 270 271 271 270 269 268 267 267 266 266
281 280 280 284 286 284 281 281 283 282 274 259 247 243 244 245 244 244 246 249 249 249 249 248 249 251 253 253 255 256 256 256 253 251 250 248 246 245 245 244 243 244 247 248 248 250 251 250 247 243 240 239 239 239 239 238 239 240 242 243 243 244 244 246 247 249 251 255 257 260 262 265 267 269 270 271 270 270 271 272 273 273 272 270 267
281 280 278 280 282 281 278 278 281 282 279 271 256 245 246 251 247 242 242 245 247 248 248 248 250 250 251 252 254 255 256 257 256 254 252 248 244 242 243 244 243 244 246 246 246 247 249 249 248 245 242 240 239 240 241 240 239 238 238 239 240 242 243 245 247 250 253 255 257 260 262 264 265 268 270 271 272 273 274 275 277 277 276 273 267
282 282 280 277 276 277 277 276 278 279 278 276 268 254 250 254 250 244 241 243 245 247 247 249 251 252 253 255 256 256 258 258 256 255 254 250 244 241 241 242 243 243 244 245 246 248 250 250 250 247 244 242 241 242 242 241 239 238 237 238 239 241 243 246 248 250 252 253 254 257 260 262 264 267 270 273 275 275 275 276 278 279 277 272 264
278 281 281 277 272 272 275 275 274 274 275 275 273 265 258 256 253 248 244 243 244 246 247 249 253 255 257 258 258 258 259 260 259 259 258 254 247 243 241 243 244 246 249 252 255 254 251 249 249 248 245 243 243 244 244 243 241 239 239 239 240 242 244 246 247 250 252 254 255 257 260 263 265 267 269 271 272 272 273 276 279 279 276 269 263
275 277 280 280 275 270 270 270 269 268 270 273 274 270 264 259 255 251 247 243 242 242 243 244 246 249 253 257 259 260 261 262 265 268 267 263 257 253 251 252 255 258 261 263 260 256 252 250 249 249 248 247 246 246 246 245 244 242 241 240 241 242 245 247 249 251 253 255 256 257 259 262 263 264 266 267 267 270 272 275 276 277 275 269 263
271 274 277 279 277 272 267 265 265 264 265 269 274 274 270 264 259 254 251 248 245 243 243 245 246 247 248 250 254 257 259 259 261 265 266 265 264 262 262 262 263 265 266 264 259 255 252 250 249 250 251 251 250 249 249 249 247 245 244 244 243 243 245 248 249 251 253 255 256 257 258 260 260 260 261 263 265 267 271 272 272 273 273 269 264
268 272 276 278 278 273 268 265 264 262 261 264 270 275 276 273 267 261 257 254 252 249 248 248 249 249 249 250 251 254 256 256 258 260 261 263 263 264 265 266 266 267 267 264 259 255 252 250 250 251 252 254 255 254 254 253 252 250 249 248 247 246 246 247 249 251 253 254 256 256 257 258 258 258 259 260 263 265 267 269 270 270 271 270 264
264 268 274 278 278 273 268 266 267 267 265 265 268 273 279 280 277 274 270 262 255 252 251 251 252 252 252 251 251 253 255 256 257 257 258 259 261 264 265 266 268 267 265 261 258 255 253 252 252 252 254 256 258 259 258 257 255 254 253 252 250 250 249 249 250 252 253 254 255 256 255 256 257 258 258 258 260 262 264 267 268 269 268 267 263
261 263 269 275 277 272 266 266 270 273 272 269 267 267 269 269 270 274 276 273 265 257 253 252 253 255 255 255 253 253 253 254 255 255 255 257 260 263 265 265 265 263 260 258 257 255 254 254 254 254 256 258 260 261 260 259 257 255 254 253 252 252 251 250 250 251 253 253 254 254 254 254 256 257 257 258 260 261 262 264 266 266 263 263 262
259 261 265 270 273 271 266 266 270 273 273 271 269 266 266 265 264 267 273 275 272 267 260 256 254 254 255 257 256 255 254 254 253 253 253 255 258 261 262 261 259 257 255 254 255 255 255 255 256 256 257 259 261 262 262 261 258 255 254 253 252 252 251 251 251 252 253 254 254 255 255 255 256 257 258 259 261 262 263 263 264 263 260 259 260
259 261 263 265 266 266 265 265 268 270 270 271 270 270 270 270 270 270 272 272 271 269 267 265 263 261 258 257 255 255 254 253 252 252 252 254 256 258 258 257 257 256 256 256 257 258 258 258 258 258 258 258 259 261 262 262 260 256 253 253 253 254 254 255 255 256 256 256 258 259 258 257 257 257 258 260 262 263 264 264 262 260 258 258 259
259 260 263 265 265 265 265 265 265 265 267 269 270 270 271 271 271 272 273 272 270 268 267 268 270 269 265 262 258 255 253 251 251 250 251 251 252 252 254 255 255 256 257 257 257 258 259 259 259 260 260 259 258 258 259 260 259 257 255 256 257 259 260 261 262 262 262 261 260 260 259 258 258 258 259 261 263 264 264 261 259 257 256 257 258
258 259 262 266 267 267 267 266 265 265 267 270 271 270 270 271 272 272 272 272 271 269 267 268 269 269 267 267 265 262 257 253 250 249 249 251 251 251 252 253 254 255 256 255 256 256 257 258 259 259 261 262 261 260 259 259 259 259 258 259 260 262 264 265 265 266 265 264 261 259 258 257 258 259 261 263 265 266 265 261 259 258 256 254 254
257 259 263 267 267 266 267 268 269 269 270 271 272 271 271 271 272 272 272 271 270 268 268 268 267 266 265 265 265 265 264 259 254 251 252 255 256 256 256 256 255 256 256 256 256 256 256 257 258 259 260 262 262 261 260 259 258 258 259 260 261 262 262 263 264 264 265 264 263 261 260 258 259 260 262 264 266 266 264 261 258 257 256 253 251
258 261 264 266 266 268 270 271 272 272 272 273 272 272 271 271 271 271 271 270 268 268 268 267 266 265 264 262 262 264 265 262 258 255 254 254 254 254 256 257 256 257 258 258 258 258 258 258 259 259 260 261 261 259 258 257 256 255 256 258 259 259 260 261 262 263 263 264 265 264 262 260 260 261 262 263 264 263 261 259 257 256 255 252 249
260 262 265 267 269 272 273 271 271 272 274 273 272 270 269 269 270 271 271 268 266 265 266 266 264 264 264 262 261 262 262 261 260 257 253 252 251 249 250 253 255 257 260 260 260 260 259 259 259 258 258 259 259 259 259 259 257 254 253 254 254 254 254 255 257 259 261 263 264 264 263 262 263 263 263 263 264 263 262 259 255 253 251 249 246
260 263 266 271 274 274 271 269 270 272 273 273 271 269 268 268 269 270 269 267 265 264 265 266 265 265 263 262 262 262 261 259 258 256 254 253 254 253 252 253 255 257 258 259 260 259 259 259 259 259 258 257 259 260 261 261 260 259 257 256 256 256 255 254 254 255 257 260 262 264 265 266 267 267 265 264 264 264 261 255 252 250 248 246 242
260 264 268 274 275 271 268 268 269 271 272 271 270 269 267 266 266 267 267 265 264 264 264 265 266 266 264 263 262 262 261 259 257 256 254 255 257 257 257 256 256 255 255 256 257 258 257 258 259 259 257 256 257 259 260 261 261 261 259 258 258 259 259 257 254 251 252 256 260 263 266 268 268 266 264 262 261 257 251 249 248 245 241 240 239
259 264 270 274 272 268 266 268 270 271 271 271 271 270 268 266 266 267 266 264 263 263 264 264 265 265 265 263 261 260 260 260 259 256 255 254 255 256 258 259 260 261 261 260 260 259 258 258 258 258 257 256 256 257 259 260 259 258 256 256 258 258 257 256 253 250 251 254 258 260 263 264 263 261 260 258 254 247 243 242 239 233 231 231 229
261 266 270 271 271 269 269 271 272 273 273 273 273 273 271 268 268 270 269 265 262 262 262 261 260 260 259 257 254 251 250 251 251 251 251 251 252 254 258 260 263 264 264 264 263 260 258 257 257 256 256 257 258 259 259 259 259 257 254 254 257 259 259 257 256 254 254 256 258 259 262 263 264 264 262 257 248 240 235 230 221 216 215 210 200
264 267 268 271 274 275 274 273 273 272 273 275 276 277 275 272 271 273 272 267 263 261 261 259 256 255 254 253 250 247 244 243 243 243 244 245 248 251 255 258 260 261 261 262 261 260 259 258 257 257 258 260 261 260 259 258 258 257 253 250 250 253 256 259 259 258 256 257 260 261 263 264 264 262 257 248 237 228 219 208 200 198 197 190 186
262 264 269 276 279 277 273 271 270 270 271 274 277 278 278 276 274 273 273 270 266 262 260 256 253 252 251 250 248 246 244 243 242 241 241 242 244 247 249 251 252 254 255 255 256 257 258 258 257 257 257 259 260 259 259 258 257 256 255 252 249 247 249 253 257 256 254 255 259 261 259 254 246 239 234 228 220 211 200 191 187 188 186 183 183
261 265 272 277 277 273 268 264 264 267 271 274 276 278 279 279 278 275 274 271 265 260 256 252 248 246 245 244 243 242 240 240 240 240 240 241 242 243 243 243 244 245 247 249 250 252 254 254 253 252 253 254 255 257 257 257 254 252 251 249 247 245 245 247 251 253 251 249 251 253 247 237 228 221 214 208 202 195 187 183 183 184 183 181 180
260 266 270 271 271 267 262 256 255 259 264 267 271 274 274 274 273 271 267 263 257 252 248 245 241 238 237 236 235 234 233 232 233 235 236 238 239 240 239 239 240 241 242 244 246 247 248 247 246 246 247 249 251 253 253 251 248 245 242 239 238 239 239 241 244 246 243 237 232 222 210 205 203 198 192 189 188 187 185 184 184 183 181 179 178
256 263 266 267 266 262 256 250 245 246 250 252 255 259 259 257 257 256 254 249 244 240 238 236 232 228 227 226 225 225 224 224 225 227 229 232 234 235 236 236 236 236 237 238 239 239 238 238 238 239 241 243 243 241 237 232 228 224 220 216 214 215 217 218 219 219 217 210 198 184 179 181 180 177 175 177 179 181 183 182 180 178 177 174 172
260 266 265 261 258 253 247 241 233 229 229 230 232 237 239 238 238 238 235 232 229 225 223 223 221 217 215 214 214 215 216 216 217 218 221 223 226 229 229 228 226 224 223 222 221 220 218 214 210 205 202 200 199 194 189 183 176 168 161 156 156 160 166 169 168 166 163 161 161 163 167 169 167 166 167 171 175 178 177 175 173 173 172 169 168